Location: Rehoboth Beach
(38.7438°N, 75.1341°W)
Time: 19:46:43
(UTC-04:00)

Cosmos 1452 Rocket - Visible Passes

Search period start: 18 September 2014 00:00
Search period end: 28 September 2014 00:00
Orbit: 768 x 777 km, 74.1° (Epoch: 18 September)

Date Brightness Start Highest point End Pass type
(mag) Time Alt. Az. Time Alt. Az. Time Alt. Az.
18 Sep 4.5 04:32:53 21° SSE 04:35:59 44° ESE 04:40:59 10° NNE visible
18 Sep 4.8 06:14:17 10° WSW 06:18:20 22° WNW 06:22:25 10° N visible
19 Sep 5.3 03:58:43 22° SE 04:00:26 26° E 04:04:45 10° NE visible
19 Sep 4.2 05:39:08 18° WSW 05:42:23 35° WNW 05:47:13 10° N visible
20 Sep 6.0 03:24:26 15° ESE 03:24:58 15° E 03:27:54 10° ENE visible
20 Sep 3.5 05:04:51 40° SW 05:06:32 59° WNW 05:11:45 10° N visible
21 Sep 3.4 04:30:28 77° SSE 04:30:47 83° ESE 04:36:05 10° NNE visible
21 Sep 5.4 06:11:19 10° W 06:13:37 13° NW 06:15:56 10° NNW visible
22 Sep 4.5 03:56:00 44° ENE 03:56:00 44° ENE 04:00:11 10° NNE visible
22 Sep 4.8 05:36:23 19° WNW 05:37:32 21° WNW 05:41:27 10° NNW visible
23 Sep 5.6 03:21:27 23° ENE 03:21:27 23° ENE 03:24:00 10° NE visible
23 Sep 4.3 05:01:50 33° WNW 05:01:50 33° WNW 05:06:19 10° N visible
24 Sep 6.4 02:46:51 11° ENE 02:46:51 11° ENE 02:47:18 10° ENE visible
24 Sep 4.3 04:27:14 40° NNW 04:27:14 40° NNW 04:30:53 10° N visible
25 Sep 5.0 03:52:34 31° NNE 03:52:34 31° NNE 03:55:15 10° NNE visible
25 Sep 5.5 05:32:57 12° NW 05:32:57 12° NW 05:34:44 10° NNW visible
26 Sep 5.9 03:17:52 19° NE 03:17:52 19° NE 03:19:23 10° NNE visible
26 Sep 5.3 04:58:14 17° NW 04:58:14 17° NW 05:00:28 10° NNW visible
27 Sep 6.5 02:43:06 11° NE 02:43:06 11° NE 02:43:15 10° NE visible
27 Sep 5.4 04:23:29 20° NNW 04:23:29 20° NNW 04:25:24 10° N visible
